Regional Weather Roundup
Issued by NWS

Home | Current Version | Previous Version | Text Only | Print | Product List | Glossary Off
Versions: 1 2 3 4 5 6 7 8 9 10 11 12 13 14 15 16 17 18 19 20 21 22 23 24 25 26 27 28

000
ASUS45 KCYS 220310
RWRWY

WYOMING REGIONAL WEATHER ROUNDUP
NATIONAL WEATHER SERVICE CHEYENNE WY
800 PM MST SUN JAN 21 2018

NOTE:  "FAIR" INDICATES FEW OR NO CLOUDS BELOW 12,000 FEET
WITH NO SIGNIFICANT WEATHER AND/OR OBSTRUCTIONS TO VISIBILITY.

WYZ001-220400-
YELLOWSTONE NATIONAL PARK

CITY           SKY/WX    TMP DP  RH WIND       PRES   REMARKS
LK YELLOWSTONE   N/A     -6 -10  83 CALM      30.14R
W YELLOWSTONE  NOT AVBL

$$
WYZ002>013-054>058-071-098>099-220400-
NORTHERN WYOMING

CITY           SKY/WX    TMP DP  RH WIND       PRES   REMARKS
JACKSON        FAIR       4   0  83 N8        30.16R WCI  -9
CODY           FAIR      19  15  84 VRB3      30.01S
GREYBULL       FAIR      20  17  88 SE3       30.07F
WORLAND        FAIR      16  12  84 SE7       30.06S WCI   6
SHERIDAN       FAIR      19  13  77 S3        30.01S
BUFFALO        FAIR      24  13  62 CALM      30.00F
GILLETTE       FAIR      20  16  84 SW7       30.02S WCI  11
HULETT         FAIR      21  18  86 S5        30.02F WCI  15
NEWCASTLE      FAIR      19  16  86 CALM      30.02S

$$
WYZ014>020-022>026-101>103-220400-
CENTRAL WYOMING

CITY           SKY/WX    TMP DP  RH WIND       PRES   REMARKS
BIG PINEY      FAIR      14   6  70 N13       30.09R WCI   0
PINEDALE       FAIR       1   0  92 N5        30.11R WCI  -8
DUBOIS         FAIR      21   5  49 W22G28    30.03R WCI   5
LANDER         FAIR      14   6  70 CALM      30.04R
RIVERTON       FAIR      16   8  71 S6        30.05S WCI   7
CASPER         FAIR       9   7  92 SW7       30.05S WCI  -2
DOUGLAS        FAIR      16  12  84 NW15      30.04S WCI   1

$$
WYZ021-027>030-104>119-220400-
SOUTHERN WYOMING

CITY           SKY/WX    TMP DP  RH WIND       PRES   REMARKS
EVANSTON       FAIR       8   5  87 SW8       30.17R WCI  -4
ROCK SPRINGS   FAIR      14   9  80 SW20      30.09S WCI  -3
DIXON            N/A     11   6  82 CALM      30.13R
RAWLINS        FAIR       7   5  91 W6        30.05R WCI  -3
SARATOGA       FAIR      10   9  92 W9        30.05R WCI  -2
LARAMIE        FLURRIES  15  11  83 NW20      29.95R WCI  -2
CHEYENNE       LGT SNOW  20  17  88 NW17G28   29.92S FOG     WCI   5
TORRINGTON     CLOUDY    26  20  77 NW14      29.97F WCI  14

$$




USA.gov is the U.S. government's official web portal to all federal, state and local government web resources and services.